This demonstration page uses our WeatherBlox Daily Observations layout. Learn more.

Left ArrowRight Arrow

Hourly Observations for October 4, 2015

Temp ( °F °C ) Dew Point ( °F °C ) Humidity (%) Winds ( mph kmh ) Pressure ( in mb ) Visibility ( mi km ) Precip ( " mm )
12:53 am 00:53 Cloudy with Light Rain 37 2.8 35 1.7 93 93 NW 15 24 30.24 1024 10 16 0.00 0.03
1:01 am 01:01 Cloudy with Light Rain 37 2.8 35 1.7 93 93 NW 15 24 30.24 1024 10 16 0.00 0.03
1:53 am 01:53 Cloudy with Light Rain 36 2.2 35 1.7 97 97 NW 16 26 30.24 1024 10 16 0.00 0.03
2:24 am 02:24 Cloudy 36 2 36 2 100 100 NW 15 24 30.27 1025 10 16 0.00 0.00
2:53 am 02:53 Cloudy with Light Rain 36 2.2 35 1.7 97 97 NW 13 20 30.24 1024 10 16 0.00 0.03
3:41 am 03:41 Cloudy with Light Rain 36 2.2 34 1.1 93 93 NW 13 20 30.27 1025 10 16 0.01 0.25
3:53 am 03:53 Cloudy with Light Rain 36 2.2 34 1.1 93 93 WNW 12 19 30.25 1024 10 16 0.01 0.25
4:30 am 04:30 Cloudy with Light Rain 36 2 34 1 93 93 NW 13 20 30.30 1026 10 16 0.00 0.00
4:48 am 04:48 Cloudy with Light Rain 36 2 34 1 93 93 WNW 10 17 30.30 1026 10 16 0.00 0.00
4:53 am 04:53 Cloudy with Light Rain 35 1.7 34 1.1 96 96 WNW 13 20 30.25 1025 10 16 0.01 0.25
5:16 am 05:16 Cloudy with Light Rain 36 2 34 1 93 93 WNW 10 17 30.30 1026 10 16 0.00 0.00
5:27 am 05:27 Cloudy with Light Rain 36 2.2 35 1.7 97 97 NW 10 17 30.30 1026 10 16 0.02 0.51
5:34 am 05:34 Cloudy with Light Rain 36 2 34 1 93 93 NW 12 19 30.30 1026 9 14 0.00 0.00
5:49 am 05:49 Cloudy with Light Rain 36 2 34 1 93 93 WNW 9 15 30.30 1026 10 16 0.02 0.51
5:53 am 05:53 Cloudy with Light Rain 36 2.2 34 1.1 93 93 NW 9 15 30.26 1025 10 16 0.02 0.51
6:06 am 06:06 Cloudy with Light Rain 36 2.2 34 1.1 93 93 WNW 12 19 30.30 1026 10 16 0.00 0.03
6:35 am 06:35 Cloudy with Light Rain 35 1.7 34 1.1 96 96 WNW 8 13 30.30 1026 10 16 0.01 0.25
6:53 am 06:53 Cloudy with Light Rain 35 1.7 34 1.1 96 96 WNW 10 17 30.26 1025 10 16 0.02 0.51
7:12 am 07:12 Cloudy with Light Rain 36 2 34 1 93 93 WNW 13 20 30.30 1026 9 14 0.00 0.00
7:53 am 07:53 Cloudy with Light Snow 33 0.6 33 0.6 100 100 W 8 13 30.28 1025 4 6 0.04 1.02
8:09 am 08:09 Cloudy with Light Snow 33 0.6 33 0.6 100 100 W 8 13 30.30 1026 2 3 0.00 0.03
8:17 am 08:17 Cloudy with Light Snow 33 0.6 33 0.6 100 100 W 9 15 30.30 1026 1 2 0.01 0.25
8:30 am 08:30 Cloudy with Light Snow 32 0 32 0 100 100 WSW 9 15 30.30 1026 1 2 0.00 0.00
8:44 am 08:44 Cloudy with Light Snow 32 0 32 0 100 100 WSW 8 13 30.30 1026 2 2 0.00 0.00
8:48 am 08:48 Cloudy with Light Snow 32 0 32 0 100 100 WSW 9 15 30.30 1026 2 3 0.00 0.00
8:53 am 08:53 Cloudy with Light Snow 33 0.6 33 0.6 100 100 WSW 8 13 30.28 1026 3 4 0.03 0.76
9:19 am 09:19 Cloudy with Light Snow 33 0.6 33 0.6 100 100 W 9 15 30.30 1026 4 6 0.01 0.25
9:40 am 09:40 Cloudy with Light Snow 34 1 34 1 100 100 W 7 11 30.33 1027 3 4 0.00 0.00
9:50 am 09:50 Cloudy with Light Snow 34 1 34 1 100 100 W 9 15 30.30 1026 4 6 0.00 0.00
9:53 am 09:53 Cloudy with Light Snow 34 1.1 33 0.6 97 97 W 9 15 30.29 1026 4 6 0.03 0.76
10:53 am 10:53 Cloudy with Light Rain 36 2.2 34 1.1 93 93 WNW 13 20 30.29 1026 10 16 0.01 0.25
11:01 am 11:01 Cloudy with Light Rain 36 2.2 34 1.1 93 93 WNW 12 19 30.30 1026 10 16 0.00 0.03
11:42 am 11:42 Cloudy 37 3 36 2 93 93 WNW 9 15 30.27 1025 10 16 0.00 0.00
11:53 am 11:53 Cloudy with Light Rain 37 2.8 34 1.1 89 89 WNW 12 19 30.27 1025 10 16 0.01 0.25
12:53 pm 12:53 Cloudy with Light Rain 38 3.3 35 1.7 89 89 WNW 9 15 30.25 1024 10 16 0.01 0.25
1:37 pm 13:37 Cloudy 38 3.3 36 2.2 93 93 W 8 13 30.24 1024 10 16 0.00 0.03
1:50 pm 13:50 Cloudy 37 3 36 2 93 93 W 8 13 30.24 1024 10 16 0.00 0.00
1:53 pm 13:53 Cloudy 38 3.3 35 1.7 89 89 WSW 6 9 30.23 1024 10 16 0.00 0.03
2:08 pm 14:08 Cloudy 37 3 36 2 93 93 W 8 13 30.21 1023 10 16 0.00 0.00
2:53 pm 14:53 Cloudy 39 3.9 36 2.2 89 89 WSW 8 13 30.21 1023 10 16 0.00 0.00
3:53 pm 15:53 Cloudy 40 4.4 36 2.2 86 86 WNW 9 15 30.20 1023 10 16 0.00 0.00
4:14 pm 16:14 Cloudy 39 4 36 2 87 87 NW 8 13 30.21 1023 10 16 0.00 0.00
4:53 pm 16:53 Cloudy 40 4.4 35 1.7 83 83 WNW 6 9 30.19 1023 10 16 0.00 0.00
5:53 pm 17:53 Cloudy 40 4.4 34 1.1 79 79 W 3 6 30.18 1022 10 16 0.00 0.00
6:53 pm 18:53 Cloudy 39 3.9 36 2.2 89 89 SW 3 6 30.17 1022 10 16 0.00 0.00
7:53 pm 19:53 Cloudy 39 3.9 36 2.2 89 89 SSW 3 6 30.19 1022 10 16 0.00 0.00
8:53 pm 20:53 Cloudy 39 3.9 36 2.2 89 89 SW 3 6 30.19 1022 10 16 0.00 0.00
9:53 pm 21:53 Cloudy 40 4.4 33 0.6 77 77 Calm 30.17 1022 10 16 0.00 0.00
10:53 pm 22:53 Cloudy 39 3.9 34 1.1 82 82 SE 5 7 30.16 1021 10 16 0.00 0.00
11:53 pm 23:53 Cloudy 39 3.9 34 1.1 82 82 Calm 30.16 1021 10 16 0.00 0.00

Powered by AerisWeather